Regional Weather Roundup
Issued by NWS

Home | Current Version | Previous Version | Graphics & Text | Print | Product List | Glossary On
Versions: 1 2 3 4 5 6 7 8 9 10 11 12 13 14 15 16 17 18 19 20 21 22 23 24 25 26 27 28 29 30 31 32 33 34 35 36 37 38 39 40 41 42 43 44 45 46 47 48 49 50
000
ASUS43 KLOT 311310
RWRIL

ILLINOIS REGIONAL WEATHER ROUNDUP
NATIONAL WEATHER SERVICE CHICAGO/ROMEOVILLE IL
800 AM CDT THU JUL 31 2014

NOTE: "FAIR" INDICATES FEW OR NO CLOUDS BELOW 12,000 FEET WITH NO
SIGNIFICANT WEATHER AND/OR OBSTRUCTIONS TO VISIBILITY.

* THESE STATIONS ARE NOT UNDER NWS QUALITY CONTROL. THEY ALSO MAY NOT
  REPORT WEATHER SUCH AS PRECIPITATION OR FOG.

ILZ001-002-007-009-015-016-024-311400-
NORTHWEST ILLINOIS

CITY           SKY/WX    TMP DP  RH WIND       PRES   REMARKS
MOLINE         SUNNY     65  61  87 W3        30.07R
STERLING*      SUNNY     64  61  88 W6        30.06S
SAVANNA*       SUNNY     65  61  88 CALM      30.05S
$$

ILZ003-004-008-010-011-017-018-311400-
NORTH CENTRAL ILLINOIS

CITY           SKY/WX    TMP DP  RH WIND       PRES   REMARKS
ROCKFORD       SUNNY     63  57  81 CALM      30.06R
FREEPORT*      SUNNY     63  59  88 W6        30.07S
ROCHELLE*      SUNNY     61  58  91 CALM      30.06S
DE KALB*       SUNNY     65  58  78 W9        30.06R
PERU*          SUNNY     63  61  93 W3        30.07S
$$

ILZ005-006-012>014-019>023-311400-
NORTHEAST ILLINOIS

CITY           SKY/WX    TMP DP  RH WIND       PRES   REMARKS
CHICAGO-OHARE  MOSUNNY   67  53  61 W7        30.03R
CHICAGO-MIDWAY MOSUNNY   68  58  70 SW7       30.04R
AURORA         SUNNY     63  56  78 W6        30.05R
LANSING*       PTSUNNY   63  59  87 CALM      30.05S FOG
JOLIET*        SUNNY     63  57  80 W3        30.06S
WAUKEGAN       SUNNY     65  57  75 VRB3      30.02R
DUPAGE AIRPORT SUNNY     66  57  72 SW6       30.04R
KANKAKEE*      MOSUNNY   63  60  90 SW3       30.07S
WHEELING       SUNNY     67  58  72 W3        30.05R
MORRIS*        SUNNY     63  60  90 W5        30.05S
ROMEOVILLE*    SUNNY     63  59  87 CALM      30.06R
NORTHERLY ISL    N/A     67  56  67 W6          N/A
$$

LMZ740>746-311400-
SOUTHERN LAKE MICHIGAN

STATION/POSITION SKY/WX   TEMP    WIND        PRES    VSBY  WAVE
                          AIR SEA DIR/SP/G                  HT/PER
                          (F)     (DEG/KT/KT) (MB)    (MI)  (FT/S)
SOUTHERN BUOY              62 60  240/ 10/ 10 1016.1R         1/ 3
WAUKEGAN HARBOR            66     260/  9/ 12   N/A
HARRISON CRIB              68     250/ 10/ 13   N/A
BURNHAM HARBOR             68     270/  5/  8   N/A
CALUMET HARBOR             66     210/  3/  5 1015.9F
MICHIGAN CITY              64     180/ 11/ 12   N/A
MICHIGAN CITY 6N           66 69  200/ 10/ 12   N/A           1/ 2
ST. JOSEPH                 66 68  200/ 14/ 16   N/A           2/ 3
$$

ILZ025>027-034>036-040-047-049-050-058-095>099-311400-
WEST-CENTRAL ILLINOIS

CITY           SKY/WX    TMP DP  RH WIND       PRES   REMARKS
QUINCY         SUNNY     64  62  93 SW3       30.10R
GALESBURG*     SUNNY     63  62  95 CALM      30.09R
MACOMB*        SUNNY     63  61  93 CALM      30.11R
JACKSONVILLE*  SUNNY     66  63  91 SW3       30.10S
PITTSFIELD*    SUNNY     65  60  85 CALM      30.11S
$$

ILZ028>032-037-038-041>044-048-051>054-059>061-311400-
CENTRAL ILLINOIS

CITY           SKY/WX    TMP DP  RH WIND       PRES   REMARKS
PONTIAC        SUNNY     64  63  94 CALM      30.07S
DECATUR        SUNNY     65  60  84 SW6       30.10R
PEORIA         SUNNY     67  60  78 CALM      30.08R
LACON*         SUNNY     63  60  91 SW3       30.07R
LINCOLN*       SUNNY     64  61  91 CALM      30.07R
SPRINGFIELD    SUNNY     65  60  84 W5        30.10R
TAYLORVILLE    SUNNY     63  59  88 CALM      30.10R
$$

ILZ033-039-045-046-055>057-062-063-311400-
EAST-CENTRAL ILLINOIS

CITY           SKY/WX    TMP DP  RH WIND       PRES   REMARKS
CHAMPAIGN      SUNNY     65  61  87 NW3       30.09R
DANVILLE*      SUNNY     64  60  90 CALM      30.06R
RANTOUL*       SUNNY     66  60  83 CALM      30.09R
MATTOON        SUNNY     68  60  75 W3        30.09R
PARIS*         SUNNY     64  61  91 CALM      30.10R
$$

ILZ079-100>102-311400-
SOUTHWEST ILLINOIS

CITY           SKY/WX    TMP DP  RH WIND       PRES   REMARKS
ALTON          SUNNY     64  64 100 CALM      30.10R
BELLEVILLE     FOG       63  63 100 CALM      30.09R VSB 3/4
CAHOKIA*       SUNNY     68  64  87 CALM      30.09S
SPARTA*        SUNNY     64  63  94 S3        30.11R
$$

ILZ064>066-069>071-074>076-080>082-084>086-088>090-092>094-311400-
SOUTH-CENTRAL ILLINOIS

CITY           SKY/WX    TMP DP  RH WIND       PRES   REMARKS
CARBONDALE     SUNNY     65  62  90 S5        30.10R
CAIRO*         PTSUNNY   68  66  94 CALM      30.10R
EFFINGHAM*     SUNNY     67  60  78 CALM      30.10R
MT. VERNON     SUNNY     63  59  88 CALM      30.11R
CENTRALIA*     SUNNY     80  64  57 CALM      30.10R HX  82
SALEM*         SUNNY    N/A N/A N/A CALM      30.10R
METROPOLIS*    MOSUNNY   66  62  87 CALM      30.10S
$$

ILZ067-068-072-073-078-083-087-091-311400-
SOUTHEAST ILLINOIS

CITY           SKY/WX    TMP DP  RH WIND       PRES   REMARKS
LAWRENCEVILLE  SUNNY     66  62  87 CALM      30.10R
FLORA*         SUNNY     65  63  93 CALM      30.10R
FAIRFIELD*     SUNNY     64  63  94 CALM      30.10R
HARRISBURG*    SUNNY     63  63 100 CALM      30.11R
ROBINSON*      SUNNY     66  64  94 CALM      30.11R
CARMI*         SUNNY     66  66 100 CALM      30.10R
$$

ABBREVIATIONS USED IN REMARKS
   TC - TEMPERATURE IN CELSIUS
  WCI - WIND CHILL INDEX
   HX - HEAT INDEX
  VSB - VISIBILITY
$$




USA.gov is the U.S. government's official web portal to all federal, state and local government web resources and services.